STARLINK-1606, 46144

Orbit data source: Space-Track

STARLINK-1606, 46144 is a payload satellite owned by SpaceX/Seattle (US) in LEO that was launched on Tue, 18 Aug 2020 UTC via an FALCON 9 launch vehicle from the Air Force Eastern Test Range (AFETR). Payload-class satellites include a variety of spacecraft equipped with specific instruments for various scientific and technological missions. These include communications satellites like Starlink; space stations such as the ISS; scientific satellites like the Hubble; Earth observation satellites from companies like Planet Labs, Umbra, and HawkEye 360; GPS; miniature CubeSats for education and research; and military/defense satellites.

Loading next visibility...
Identifier
46144, 2020-057AD
Orbit
LEO
Country
Flag of USUS
Related business
Manufacturer
SpaceX/Seattle
Mission
Operational Commercial Communications
Bus & Motor
STARLINK, Unknown motor
Mass
260 kg wet, ~248 kg dry
Launch date (UTC)
2020-08-18 (5 years ago)
Launch vehicle
FALCON 9
Launch site
Air Force Eastern Test Range (AFETR)
Object type
Payload
Rocket body
Debris
Shape & HBR
Box + 1 Pan, 10.1 m
Radar Cross Section
13.562 m², Large (>1 m²)

Expand to show TLE details & history
Last TLE update: 17 hours ago

TLE from 17 hours ago
0 STARLINK-1606
1 46144U 20057AD  25287.33335648  .02224533  00000-0  10905+0 0  9997
2 46144  53.0533 233.5304 0001797  89.8293  66.3451 15.14177335  5808
Epoch: 2025-10-14T08:00Z
TLE epoch observation values (Epoch: 2025-10-14T08:00:01.999Z)
Latitude
18.85596°
Longitude
-104.40102°
Altitude
523.347 km
Speed
7.605 km/s
True Right ascension
02h 34m 55s
True Declination
18° 44' 51"
Sunlit
Object was in full shadow at epoch
Visualization orbit readout
Latitude
Unknown
Longitude
Unknown
Altitude
Unknown
Speed
Unknown
Apparent Right ascension
Unknown
Apparent Declination
Unknown
Sunlit
N/A
Visualization observer readout
Local Sidereal Time
19:55:42
Azimuth
Unknown
Elevation
Unknown
Doppler factor
Unknown
Orbital elements
Apogee altitude
524.989 km
Perigee altitude
522.509 km
Semi-major axis
6,901.886 km
Eccentricity
0.00018
Inclination
53.0533°
RAAN
233.5304°
Arg. of periapsis
89.8293°
True anomaly
66.36396°
Mean anomaly
66.3451°
Eccentric anomaly
66.35453°
Mean motion
3.78522 °/min
Orbital period
95.11 mins
BSTAR
0.10905
Loading maneuver chart data...
Computing Atmospheric mass density...
Loading historical data...
Loading historical data...
Loading historical data...
Loading historical data...
Loading historical data...
Loading historical data...
Loading historical data...

Documentation

Showing up to 5 results
|